Flag for U.S.A. Weather past 2 weeks in Lansing, Michigan, U.S.A.

Now
77 °F

Sunny.


Feels Like: 78 °F
Forecast: 59 / 83 °F
Wind: 14 mph from Southeast

Location: Capital City Airport

Current Time: May 28, 2015 at 8:39:09 PM

Latest Report: May 28, 2015 at 7:53 PM


Visibility: 10 mi

Pressure: 30.18 "Hg

Humidity: 47%

Dew point: 55 °F

Location of LansingLocation

Historic Weather in Lansing — Graph

°F

Lansing temperature yesterday

Maximum temperature yesterday: 75 °F (at 11:53 AM)
Minimum temperature yesterday: 60 °F (at 11:53 PM)
Average temperature yesterday: 69 °F

Past Weeks' High & Low Weather Summary

 TemperatureHumidityPressure
High82 °F (May 18, 2:53 PM)100% (May 16, 2:53 AM)30.47 "Hg (May 16, 2:53 AM)
Low34 °F (May 20, 4:53 AM)22% (May 23, 3:53 PM)29.80 "Hg (May 26, 4:53 PM)
Average62 °F65%30.10 "Hg
* Reported May 13 6:53 PM — May 28 6:53 PM, Lansing, Weather by CustomWeather, © 2015

Note: Actual official high and low records may vary slightly from our data, if they occured in-between our weather recording intervals... More about our weather records

Advertising

Lansing weather history for previous 24 hours

 ConditionsComfort  
Time TempWeatherWind HumidityBarometerVisibility
6:53 PM
Thu, May 28
78 °FSunny.10 mph46%30.18 "Hg10 mi
5:53 PM79 °FSunny.10 mph42%30.19 "Hg10 mi
4:53 PM79 °FSunny.7 mph44%30.19 "Hg10 mi
3:53 PM79 °FPassing clouds.7 mph47%30.20 "Hg10 mi
2:53 PM78 °FScattered clouds.8 mph50%30.21 "Hg10 mi
1:53 PM78 °FPassing clouds.5 mph52%30.23 "Hg10 mi
12:53 PM77 °FSunny.5 mph54%30.24 "Hg10 mi
11:53 AM75 °FSunny.8 mph55%30.24 "Hg10 mi
10:53 AM73 °FSunny.5 mph57%30.23 "Hg10 mi
9:53 AM70 °FSunny.5 mph59%30.23 "Hg10 mi
8:53 AM65 °FSunny.6 mph76%30.23 "Hg10 mi
7:53 AM59 °FSunny.No wind90%30.23 "Hg8 mi
6:53 AM55 °FFog.No wind93%30.22 "Hg6 mi
5:53 AM53 °FClear.No wind96%30.19 "Hg7 mi
4:53 AM53 °FClear.No wind96%30.19 "Hg7 mi
3:53 AM55 °FClear.No wind96%30.16 "Hg7 mi
2:53 AM56 °FClear.No wind90%30.15 "Hg9 mi
1:53 AM57 °FClear.3 mph90%30.14 "Hg10 mi
12:53 AM58 °FClear.3 mph90%30.11 "Hg10 mi
11:53 PM
Wed, May 27
60 °FClear.7 mph83%30.10 "Hg10 mi
10:53 PM62 °FClear.8 mph80%30.09 "Hg10 mi
9:53 PM63 °FSunny.7 mph78%30.06 "Hg10 mi
8:53 PM67 °FPassing clouds.10 mph68%30.02 "Hg10 mi
Weather by CustomWeather, © 2015

See weather overviewHow to use our weather pages